FW4179 Weather Reports


time (UTC)temp
C
wind
direction
speed
KPH
gust
KPH
rain 1hr
cm
rain 24hr
cm
rain mn
cm
humidity
%
barometer
mb
20260906204621 33 0 0.0 1.6 0.00 0.08 0.08 60 1012.2
20260906203057 33 355 0.0 6.4 0.00 0.08 0.08 62 1012.1
20260906201624 33 0 0.0 1.6 0.00 0.08 0.08 64 1012.2
20260906200052 33 0 0.0 6.4 0.00 0.08 0.08 63 1012.5
20260906194602 33 71 0.0 4.8 0.00 0.91 0.08 64 1012.5
20260906193107 33 0 0.0 4.8 0.00 0.91 0.08 65 1012.8
20260906191605 33 0 0.0 8.0 0.00 0.91 0.08 67 1013.1
20260906190058 32 0 0.0 3.2 0.00 0.91 0.08 66 1013.4
20260906184559 32 55 0.0 4.8 0.00 0.91 0.08 66 1013.5
20260906183103 33 56 0.0 6.4 0.00 0.91 0.08 66 1013.5
20260906181602 32 0 0.0 6.4 0.00 0.91 0.08 65 1013.6
20260906180056 32 0 0.0 6.4 0.00 0.91 0.08 69 1013.9
20260906174608 32 107 0.0 6.4 0.00 0.91 0.08 71 1014.0
20260906173059 31 0 0.0 6.4 0.00 0.91 0.08 71 1014.2
20260906171600 31 0 0.0 6.4 0.00 0.91 0.08 72 1014.4
20260906170050 31 101 0.0 3.2 0.00 0.91 0.08 74 1014.6
20260906164557 30 0 1.6 11.3 0.00 0.91 0.08 78 1014.8
20260906163058 30 0 0.0 4.8 0.00 0.91 0.08 75 1014.9
20260906161601 30 0 1.6 6.4 0.00 0.91 0.08 77 1015.0
20260906160100 30 0 0.0 3.2 0.00 0.91 0.08 78 1015.0
20260906154601 29 0 0.0 4.8 0.00 0.91 0.08 79 1014.9
20260906153112 28 0 0.0 6.4 0.00 0.91 0.08 79 1015.0
20260906151556 28 0 0.0 3.2 0.00 0.91 0.08 82 1015.1
20260906150100 27 0 0.0 0.0 0.00 0.91 0.08 84 1015.2
20260906144605 26 252 0.0 6.4 0.00 0.91 0.08 85 1015.3
20260906143101 25 0 0.0 0.0 0.00 0.91 0.08 89 1015.2
20260906141601 24 0 0.0 6.4 0.00 0.91 0.08 92 1015.1
20260906140110 23 0 0.0 4.8 0.00 0.91 0.08 94 1015.1
20260906134624 23 0 0.0 3.2 0.00 0.91 0.08 95 1015.2
20260906133103 22 0 0.0 1.6 0.00 0.91 0.08 97 1015.3
20260906131557 22 0 0.0 4.8 0.00 0.91 0.08 99 1015.3
20260906130104 22 0 0.0 4.8 0.00 0.91 0.08 100 1015.2
20260906124606 22 0 0.0 0.0 0.00 0.91 0.08 100 1015.2
20260906123058 21 0 0.0 0.0 0.00 0.91 0.08 100 1015.2
20260906121605 21 0 0.0 0.0 0.00 0.91 0.08 100 1015.0
20260906120107 21 0 0.0 0.0 0.00 0.91 0.08 100 1015.0
20260906114617 21 0 0.0 0.0 0.00 0.91 0.08 100 1014.7
20260906113057 21 0 0.0 0.0 0.00 0.91 0.08 100 1014.4
20260906111621 21 0 0.0 0.0 0.00 0.91 0.08 100 1014.2
20260906110057 21 0 0.0 0.0 0.00 0.91 0.08 99 1014.2
20260906104551 21 0 0.0 0.0 0.00 0.91 0.08 99 1014.3
20260906103057 21 0 0.0 0.0 0.00 0.91 0.08 99 1014.0
20260906101600 21 0 0.0 1.6 0.00 0.91 0.08 99 1014.1
20260906100057 21 0 0.0 0.0 0.00 0.91 0.08 99 1013.9
20260906094551 21 0 0.0 0.0 0.00 0.91 0.08 99 1014.2
20260906093104 21 0 0.0 8.0 0.00 0.91 0.08 99 1014.0
20260906091557 21 142 0.0 4.8 0.00 0.91 0.08 99 1013.9
20260906090113 21 0 1.6 4.8 0.00 0.91 0.08 99 1014.0
20260906084611 21 0 0.0 3.2 0.03 0.91 0.08 99 1014.0
20260906083057 22 0 0.0 3.2 0.03 0.91 0.08 99 1014.0
20260906081604 21 157 0.0 6.4 0.03 0.91 0.08 99 1014.0
20260906080100 21 0 0.0 0.0 0.03 0.91 0.08 98 1013.9
20260906074606 22 0 0.0 0.0 0.00 0.89 0.05 98 1014.0
20260906073107 22 182 0.0 1.6 0.00 0.89 0.05 98 1014.2
20260906071557 22 0 0.0 6.4 0.00 0.89 0.05 98 1014.2
20260906070125 22 0 0.0 0.0 0.00 0.89 0.05 98 1014.3
20260906064556 22 88 1.6 4.8 0.00 0.89 0.05 98 1014.3
20260906063059 23 0 0.0 9.7 0.03 0.89 0.05 97 1013.9
20260906061635 23 74 1.6 8.0 0.05 0.89 0.05 97 1014.0
20260906060057 22 103 0.0 9.7 0.05 0.89 0.05 96 1014.4
20260906054557 23 152 8.0 14.5 0.05 0.89 0.05 96 1013.6
20260906053058 23 0 0.0 1.6 0.03 0.86 0.03 93 1014.6
20260906051554 24 0 0.0 6.4 0.00 0.84 0.00 93 1015.6
20260906050110 24 336 0.0 9.7 0.00 0.84 0.00 92 1015.6
20260906044553 23 0 0.0 6.4 0.00 0.84 0.84 92 1015.4
20260906043104 23 352 0.0 0.0 0.00 0.84 0.84 92 1014.8
20260906041557 23 0 0.0 0.0 0.00 0.84 0.84 90 1014.0
20260906040115 23 0 0.0 0.0 0.00 0.84 0.84 91 1014.6
20260906034553 23 0 0.0 0.0 0.00 0.84 0.84 91 1015.1
20260906033102 23 0 0.0 0.0 0.00 0.84 0.84 91 1015.0
20260906031607 23 0 0.0 6.4 0.00 0.84 0.84 91 1014.2
20260906030107 23 0 0.0 0.0 0.00 0.84 0.84 92 1014.4
20260906024558 23 0 0.0 0.0 0.00 0.84 0.84 93 1014.5
20260906023122 24 0 0.0 0.0 0.00 0.84 0.84 92 1014.0
20260906021558 24 0 0.0 0.0 0.00 0.84 0.84 91 1013.9
20260906020056 25 0 0.0 0.0 0.00 0.84 0.84 89 1013.5
20260906014623 25 0 0.0 0.0 0.00 0.84 0.84 88 1013.3
20260906013101 25 0 0.0 0.0 0.00 0.84 0.84 88 1013.3
20260906011601 26 0 0.0 0.0 0.00 0.84 0.84 85 1013.0
20260906010057 26 0 0.0 0.0 0.00 0.84 0.84 85 1013.2
20260906004609 26 0 0.0 0.0 0.00 0.84 0.84 83 1013.6
20260906003059 26 0 0.0 0.0 0.00 0.84 0.84 83 1013.6
20260906001553 27 0 0.0 3.2 0.00 0.84 0.84 82 1013.7
20260906000104 27 0 0.0 3.2 0.00 0.84 0.84 81 1013.5
20260905234602 28 0 0.0 0.0 0.00 0.84 0.84 76 1013.1
20260905233059 30 0 0.0 0.0 0.00 0.84 0.84 74 1013.1
20260905231556 30 0 0.0 1.6 0.00 0.84 0.84 74 1013.0
20260905230101 31 0 0.0 0.0 0.00 0.84 0.84 71 1013.0
20260905224607 30 0 0.0 3.2 0.00 0.84 0.84 72 1013.0
20260905223057 30 0 1.6 8.0 0.00 0.84 0.84 74 1013.3
20260905221553 30 197 1.6 12.9 0.00 0.84 0.84 74 1013.4
20260905220111 31 134 1.6 6.4 0.00 0.84 0.84 73 1013.4
20260905214557 30 0 0.0 0.0 0.00 0.84 0.84 75 1013.3
20260905213107 29 153 1.6 9.7 0.00 0.84 0.84 80 1013.5
20260905211557 28 140 1.6 11.3 0.00 0.84 0.84 81 1013.7
20260905210058 28 134 0.0 6.4 0.00 0.84 0.84 83 1013.7